This is the latest recevied weather packets stored in our database for station/object K8JCL-13. If no packets are shown the sender has not sent any weather packets the latest 10 day(s).
| Time | Temp. | Humidity | Pressure | Rain* | Wind** | Luminosity | Snow |
|---|---|---|---|---|---|---|---|
| 1777645136 | 7.78° C | 96% | 1012.4 hPa | 0 mm | - | 19 W/m² | - |
| 1777644833 | 7.78° C | 96% | 1012.1 hPa | 1.78 mm | - | 18 W/m² | - |
| 1777644531 | 7.78° C | 95% | 1012.2 hPa | 1.78 mm | - | 26 W/m² | - |
| 1777644227 | 7.78° C | 95% | 1012.2 hPa | 0 mm | - | 30 W/m² | - |
| 1777643923 | 8.33° C | 95% | 1012.1 hPa | 0 mm | - | 24 W/m² | - |
| 1777643621 | 8.33° C | 94% | 1011.9 hPa | 1.27 mm | - | 31 W/m² | - |
| 1777642711 | 8.33° C | 90% | 1012.4 hPa | 3.05 mm | - | 34 W/m² | - |
| 1777642408 | 8.33° C | 89% | 1012.4 hPa | 1.27 mm | - | 14 W/m² | - |
| 1777642104 | 8.33° C | 87% | 1012.2 hPa | 0 mm | - | 14 W/m² | - |
| 1777641801 | 8.89° C | 87% | 1012.3 hPa | 0 mm | - | 15 W/m² | - |
| 1777641496 | 8.89° C | 86% | 1012.2 hPa | 0 mm | - | 23 W/m² | - |
| 1777641191 | 8.89° C | 87% | 1012.1 hPa | 0 mm | - | 35 W/m² | - |
| 1777640888 | 8.89° C | 86% | 1011.9 hPa | 0 mm | - | 36 W/m² | - |
| 1777639675 | 8.33° C | 88% | 1012.2 hPa | 0 mm | - | 86 W/m² | - |
| 1777639067 | 8.33° C | 86% | 1012.3 hPa | 0 mm | - | 22 W/m² | - |
| 1777638764 | 8.89° C | 83% | 1012.3 hPa | 0 mm | - | 18 W/m² | - |
| 1777638460 | 8.33° C | 81% | 1012.4 hPa | 0 mm | - | 20 W/m² | - |
| 1777638158 | 8.33° C | 81% | 1012.1 hPa | 0 mm | - | 15 W/m² | - |
| 1777637852 | 8.33° C | 82% | 1012.1 hPa | 0 mm | - | 22 W/m² | - |
| 1777637549 | 8.33° C | 81% | 1012 hPa | 0 mm | - | 20 W/m² | - |
| 1777637247 | 8.33° C | 80% | 1012 hPa | 0 mm | - | 11 W/m² | - |
| 1777636944 | 8.33° C | 80% | 1011.9 hPa | 0 mm | - | 9 W/m² | - |
| 1777636639 | 8.33° C | 80% | 1012 hPa | 0 mm | - | 7 W/m² | - |
| 1777636336 | 8.33° C | 80% | 1012 hPa | 0 mm | - | 12 W/m² | - |
| 1777635732 | 8.33° C | 79% | 1011.9 hPa | 0 mm | - | 14 W/m² | - |
* Rain latest hour (hover to see other rain measurements)
** Current wind speed in m/s (hover to see current wind gust speed)